[[{"header":{"parameterUnit":"m.s-1","parameterCategory":1,"la1":30.2992,"la2":30.254,"lo1":-89.0895,"lo2":-89.0443,"dy":0.0025,"dx":0.0025,"nx":19,"ny":19,"refTime":"2026-04-11T21:00:00:Z","depth":0,"parameterNumber":2,"parameterNumberName":"U-component_of_WINDS"},"data":[0,0,0,-0.2875,-0.2875,-0.2851,-0.2851,-0.2827,-0.2827,0,0,0,0,0,0,0,0,0,0,0,-0.2886,-0.2886,-0.2875,-0.2875,-0.2851,-0.2851,-0.2827,-0.2827,0,0,0,0,0,0,0,0,0,0,0,-0.2886,-0.2886,-0.2886,-0.2875,-0.2851,-0.2851,-0.2827,-0.2843,0,0,0,0,0,0,0,0,0,0,-0.2864,-0.2878,-0.2886,-0.2886,-0.2874,-0.2851,-0.2851,-0.2843,-0.2842,-0.2841,0,-0.284,0,-0.2833,-0.2826,-0.2826,0,0,0,-0.2872,-0.2879,-0.287,-0.2886,-0.2874,-0.2851,-0.2861,-0.2842,-0.2841,-0.2838,-0.284,-0.2839,-0.2833,-0.2826,-0.2826,-0.283,-0.283,0,0,-0.2873,-0.2883,-0.2871,-0.2869,-0.2873,-0.2862,-0.286,-0.2841,-0.2844,-0.284,-0.2838,-0.2833,-0.2826,-0.2825,-0.283,-0.283,0,0,0,-0.2879,-0.2884,-0.2875,-0.287,-0.2865,-0.2861,-0.2859,-0.2844,-0.2841,-0.2838,-0.2832,-0.2825,-0.2825,-0.283,-0.283,-0.2849,0,0,0,-0.2879,-0.2888,-0.2876,-0.2882,-0.2866,-0.2855,-0.2863,-0.2842,-0.2839,-0.2833,-0.2825,-0.2825,-0.283,-0.283,-0.2848,-0.2857,0,0,0,-0.2886,-0.2889,-0.2887,-0.2883,-0.2873,-0.2855,-0.285,-0.2841,-0.2836,-0.2826,-0.2825,-0.2829,-0.283,-0.2848,-0.2855,-0.2862,0,0,0,-0.2896,-0.2903,-0.2887,-0.2892,-0.2873,-0.2867,-0.285,-0.2844,-0.2837,-0.2825,-0.283,-0.283,-0.2847,-0.2854,-0.2861,-0.287,-0.2875,0,0,-0.291,-0.2905,-0.2907,-0.2892,-0.2891,-0.2869,-0.2871,-0.2854,-0.2843,-0.2835,-0.2835,-0.2849,-0.2855,-0.2862,-0.2895,-0.2899,0,0,0,-0.2915,-0.2917,-0.2915,-0.2909,-0.2898,-0.2889,-0.2871,-0.2865,-0.2858,-0.2841,-0.2852,-0.2856,-0.2859,-0.2863,-0.2866,-0.2869,-0.2832,-0.2832,-0.2832,-0.295,-0.2937,-0.294,-0.2925,-0.292,-0.2903,-0.2898,-0.2887,-0.2873,-0.2876,-0.2874,-0.2896,-0.2901,-0.2903,-0.2907,-0.2877,-0.2877,-0.2877,-0.2877,-0.2971,-0.2972,-0.2956,-0.2954,-0.294,-0.2937,-0.2921,-0.2913,-0.2909,-0.2896,-0.2899,-0.2887,-0.2908,-0.291,-0.2878,-0.2878,-0.2878,-0.2878,-0.2878,-0.2993,-0.2991,-0.2985,-0.2977,-0.2973,-0.2956,-0.2954,-0.2941,-0.2928,-0.2931,-0.2928,-0.2928,-0.2927,-0.293,-0.293,-0.2931,-0.2931,-0.2931,-0.2931,-0.3019,-0.3011,-0.3011,-0.3001,-0.2996,-0.2989,-0.2973,-0.2968,-0.296,-0.2951,-0.2951,-0.2938,-0.2912,-0.2907,-0.2932,-0.2932,-0.2931,-0.2931,-0.2931,-0.3046,-0.3038,-0.3038,-0.3035,-0.3022,-0.302,-0.3003,-0.2995,-0.299,-0.299,-0.2977,-0.2959,-0.2952,-0.295,-0.2945,-0.2979,-0.2979,-0.2979,-0.2979,-0.3066,-0.3061,-0.306,-0.3054,-0.3048,-0.3034,-0.3035,-0.3023,-0.3009,-0.3005,-0.2998,-0.2991,-0.2989,-0.2983,-0.298,-0.2975,-0.3016,-0.3016,-0.3016,-0.3083,-0.3077,-0.3081,-0.3068,-0.3058,-0.3049,-0.3051,-0.3046,-0.3028,-0.3017,-0.3002,-0.3001,-0.2988,-0.2984,-0.2973,-0.2968,-0.296,0,0]},{"header":{"parameterUnit":"m.s-1","parameterCategory":1,"la1":30.2992,"la2":30.254,"lo1":-89.0895,"lo2":-89.0443,"dy":0.0025,"dx":0.0025,"nx":19,"ny":19,"refTime":"2026-04-11T21:00:00:Z","depth":0,"parameterNumber":3,"parameterNumberName":"V-component_of_WINDS"},"data":[0,0,0,1.2915,1.2915,1.2939,1.2939,1.2971,1.2972,0,0,0,0,0,0,0,0,0,0,0,1.2909,1.2909,1.2915,1.2915,1.2939,1.2939,1.2971,1.2972,0,0,0,0,0,0,0,0,0,0,0,1.2909,1.2909,1.2909,1.2916,1.2939,1.2939,1.2971,1.2953,0,0,0,0,0,0,0,0,0,0,1.2929,1.2925,1.2909,1.2909,1.2916,1.2939,1.294,1.2952,1.2954,1.2961,0,1.2969,0,1.2971,1.2974,1.2974,0,0,0,1.2914,1.2923,1.2929,1.2909,1.2916,1.2939,1.2928,1.2953,1.2955,1.2964,1.2969,1.297,1.2971,1.2974,1.2974,1.3023,1.3023,0,0,1.2913,1.2914,1.2927,1.293,1.2927,1.2928,1.2929,1.2954,1.2959,1.2969,1.2971,1.2972,1.2974,1.2975,1.3023,1.3023,0,0,0,1.291,1.2913,1.2918,1.2929,1.2933,1.2928,1.293,1.2958,1.296,1.2971,1.2972,1.2975,1.2975,1.3022,1.3023,1.3039,0,0,0,1.2909,1.2911,1.2917,1.2918,1.2933,1.2946,1.2933,1.2958,1.2961,1.2972,1.2975,1.2975,1.3022,1.3023,1.3037,1.3046,0,0,0,1.2907,1.2911,1.2915,1.2918,1.2928,1.2946,1.2949,1.2959,1.2962,1.2974,1.2976,1.3022,1.3023,1.3036,1.3044,1.306,0,0,0,1.2904,1.2927,1.2915,1.294,1.2928,1.2955,1.2949,1.2968,1.2981,1.2975,1.3022,1.3023,1.3036,1.3043,1.3059,1.3075,1.3081,0,0,1.2933,1.293,1.2945,1.2935,1.2965,1.2951,1.2983,1.2993,1.2993,1.3013,1.3014,1.3038,1.3044,1.306,1.3113,1.3119,0,0,0,1.2954,1.2965,1.2973,1.2985,1.2994,1.3003,1.3008,1.3013,1.303,1.3004,1.3047,1.3051,1.306,1.3068,1.3072,1.3081,1.3026,1.3026,1.3026,1.2995,1.2995,1.302,1.3024,1.3036,1.3042,1.3052,1.3058,1.3053,1.3064,1.307,1.3103,1.3111,1.3115,1.3124,1.3077,1.3077,1.3077,1.3077,1.3038,1.3054,1.3049,1.3071,1.3071,1.309,1.3097,1.3093,1.3111,1.3097,1.3106,1.3092,1.312,1.3128,1.3078,1.3078,1.3078,1.3078,1.3078,1.3066,1.3074,1.3079,1.3099,1.3113,1.3115,1.3133,1.3132,1.313,1.3138,1.3146,1.3146,1.3147,1.3142,1.3142,1.3142,1.3142,1.3142,1.3142,1.3094,1.3099,1.3115,1.3128,1.3137,1.3148,1.3155,1.3163,1.3172,1.317,1.317,1.3165,1.3122,1.3113,1.3144,1.3144,1.3143,1.3143,1.3143,1.314,1.313,1.3154,1.3163,1.3179,1.3195,1.3192,1.321,1.3216,1.3226,1.3219,1.3187,1.3184,1.3181,1.3173,1.3218,1.3218,1.3218,1.3218,1.3166,1.3164,1.319,1.3204,1.3218,1.3219,1.3248,1.3254,1.3258,1.3262,1.3255,1.3244,1.324,1.3239,1.3235,1.3228,1.3285,1.3285,1.3286,1.3195,1.3195,1.3219,1.3224,1.3237,1.3247,1.3274,1.3291,1.3294,1.3288,1.3266,1.3263,1.3245,1.3239,1.3234,1.3227,1.3213,0,0]}]]